Year,Month,Day,Hour,Minute,Value (Times are PST for temperature in C)
2023,04,23,09,10,9.90
2023,04,23,09,11,10.00
2023,04,23,09,12,10.10
2023,04,23,09,13,10.10
2023,04,23,09,14,10.20
2023,04,23,09,15,10.30
2023,04,23,09,16,10.40
2023,04,23,09,17,10.40
2023,04,23,09,18,10.50
2023,04,23,09,19,10.60
2023,04,23,09,20,10.60
2023,04,23,09,21,10.60
2023,04,23,09,22,10.60
2023,04,23,09,23,10.60
2023,04,23,09,24,10.60
2023,04,23,09,25,10.60
2023,04,23,09,26,10.60
2023,04,23,09,27,10.60
2023,04,23,09,28,10.70
2023,04,23,09,29,10.70
2023,04,23,09,30,10.70
2023,04,23,09,31,10.70
2023,04,23,09,32,10.80
2023,04,23,09,33,10.80
2023,04,23,09,34,10.80
2023,04,23,09,35,10.80
2023,04,23,09,36,10.80
2023,04,23,09,37,10.80
2023,04,23,09,38,10.80
2023,04,23,09,39,10.80
2023,04,23,09,40,10.70
2023,04,23,09,41,10.80
2023,04,23,09,42,10.80
2023,04,23,09,43,10.80
2023,04,23,09,44,10.80
2023,04,23,09,45,10.80
2023,04,23,09,46,10.70
2023,04,23,09,47,10.70
2023,04,23,09,48,10.70
2023,04,23,09,49,10.70
2023,04,23,09,50,10.60
2023,04,23,09,51,10.60
2023,04,23,09,52,10.60
2023,04,23,09,53,10.60
2023,04,23,09,54,10.60
2023,04,23,09,55,10.60
2023,04,23,09,56,10.70
2023,04,23,09,57,10.70
2023,04,23,09,58,10.80
2023,04,23,09,59,10.80
2023,04,23,10,00,10.80
2023,04,23,10,01,10.80
2023,04,23,10,02,10.70
2023,04,23,10,03,10.70
2023,04,23,10,04,10.70
2023,04,23,10,05,10.80
2023,04,23,10,06,10.80
2023,04,23,10,07,10.80
2023,04,23,10,08,10.80
2023,04,23,10,09,10.80
2023,04,23,10,10,10.80
2023,04,23,10,11,10.80
2023,04,23,10,12,10.90
2023,04,23,10,13,10.90
2023,04,23,10,14,10.90
2023,04,23,10,15,10.90
2023,04,23,10,16,10.90
2023,04,23,10,17,10.90
2023,04,23,10,18,10.90
2023,04,23,10,19,10.90
2023,04,23,10,20,10.90
2023,04,23,10,21,10.90
2023,04,23,10,22,10.90
2023,04,23,10,23,10.90
2023,04,23,10,24,11.00
2023,04,23,10,25,11.10
2023,04,23,10,26,11.10
2023,04,23,10,27,11.10
2023,04,23,10,28,11.10
2023,04,23,10,29,11.10
2023,04,23,10,30,11.10
2023,04,23,10,31,11.10
2023,04,23,10,32,11.10
2023,04,23,10,33,11.10
2023,04,23,10,34,11.10
2023,04,23,10,35,11.10
2023,04,23,10,36,11.10
2023,04,23,10,37,11.00
2023,04,23,10,38,10.90
2023,04,23,10,39,10.90
2023,04,23,10,40,10.90
2023,04,23,10,41,10.90
2023,04,23,10,42,10.90
2023,04,23,10,43,10.90
2023,04,23,10,44,11.00
2023,04,23,10,45,11.10
2023,04,23,10,46,11.10
2023,04,23,10,47,11.10
2023,04,23,10,48,11.00
2023,04,23,10,49,10.90
2023,04,23,10,50,11.00
2023,04,23,10,51,11.10
2023,04,23,10,52,11.00
2023,04,23,10,53,10.90
2023,04,23,10,54,10.90
2023,04,23,10,55,10.90
2023,04,23,10,56,10.90
2023,04,23,10,57,10.90
2023,04,23,10,58,10.90
2023,04,23,10,59,10.90
2023,04,23,11,00,10.90
2023,04,23,11,01,10.90
2023,04,23,11,02,10.90
2023,04,23,11,03,10.90
2023,04,23,11,04,10.90
2023,04,23,11,05,10.90
2023,04,23,11,06,10.90
2023,04,23,11,07,10.90
2023,04,23,11,08,10.90
2023,04,23,11,09,10.90
2023,04,23,11,10,11.00
2023,04,23,11,11,11.10
2023,04,23,11,12,11.10
2023,04,23,11,13,11.10
2023,04,23,11,14,11.10
2023,04,23,11,15,11.10
2023,04,23,11,16,11.10
2023,04,23,11,17,11.00
2023,04,23,11,18,10.90
2023,04,23,11,19,10.90
2023,04,23,11,20,10.90
2023,04,23,11,21,10.90
2023,04,23,11,22,10.90
2023,04,23,11,23,10.90
2023,04,23,11,24,10.90
2023,04,23,11,25,10.90
2023,04,23,11,26,10.90
2023,04,23,11,27,10.90
2023,04,23,11,28,10.90
2023,04,23,11,29,10.90
2023,04,23,11,30,10.80
2023,04,23,11,31,10.80
2023,04,23,11,32,10.80
2023,04,23,11,33,10.70
2023,04,23,11,34,10.70
2023,04,23,11,35,10.70
2023,04,23,11,36,10.70
2023,04,23,11,37,10.70
2023,04,23,11,38,10.70
2023,04,23,11,39,10.70
2023,04,23,11,40,10.60
2023,04,23,11,41,10.70
2023,04,23,11,42,10.70
2023,04,23,11,43,10.70
2023,04,23,11,44,10.70
2023,04,23,11,45,10.70
2023,04,23,11,46,10.80
2023,04,23,11,47,10.80
2023,04,23,11,48,10.80
2023,04,23,11,49,10.90
2023,04,23,11,50,10.90
2023,04,23,11,51,10.90
2023,04,23,11,52,10.90
2023,04,23,11,53,10.90
2023,04,23,11,54,10.90
2023,04,23,11,55,10.90
2023,04,23,11,56,10.90
2023,04,23,11,57,11.00
2023,04,23,11,58,11.10
2023,04,23,11,59,11.10
2023,04,23,12,00,11.10
2023,04,23,12,01,11.10
2023,04,23,12,02,11.10
2023,04,23,12,03,11.10
2023,04,23,12,04,11.10
2023,04,23,12,05,11.10
2023,04,23,12,06,11.10
2023,04,23,12,07,11.10
2023,04,23,12,08,11.10
2023,04,23,12,09,11.10
2023,04,23,12,10,11.10
2023,04,23,12,11,11.20
2023,04,23,12,12,11.20
2023,04,23,12,13,11.10
2023,04,23,12,14,11.10
2023,04,23,12,15,11.10
2023,04,23,12,16,11.20
2023,04,23,12,17,11.10
2023,04,23,12,18,11.10
2023,04,23,12,19,11.10
2023,04,23,12,20,11.10
2023,04,23,12,21,11.00
2023,04,23,12,22,10.90
2023,04,23,12,23,10.90
2023,04,23,12,24,10.90
2023,04,23,12,25,10.90
2023,04,23,12,26,10.90
2023,04,23,12,27,10.90
2023,04,23,12,28,10.90
2023,04,23,12,29,10.90
2023,04,23,12,30,10.90
2023,04,23,12,31,10.90
2023,04,23,12,32,10.90
2023,04,23,12,33,10.90
2023,04,23,12,34,10.90
2023,04,23,12,35,10.90
2023,04,23,12,36,10.90
2023,04,23,12,37,10.90
2023,04,23,12,38,10.90
2023,04,23,12,39,10.90
2023,04,23,12,40,10.90
2023,04,23,12,41,10.90
2023,04,23,12,42,10.90
2023,04,23,12,43,10.90
2023,04,23,12,44,10.90
2023,04,23,12,45,10.90
2023,04,23,12,46,10.90
2023,04,23,12,47,10.90
2023,04,23,12,48,10.90
2023,04,23,12,49,10.90
2023,04,23,12,50,10.90
2023,04,23,12,51,10.90
2023,04,23,12,52,10.90
2023,04,23,12,53,10.90
2023,04,23,12,54,10.90
2023,04,23,12,55,10.90
2023,04,23,12,56,10.90
2023,04,23,12,57,11.00
2023,04,23,12,58,11.00
2023,04,23,12,59,10.90
2023,04,23,13,00,11.00
2023,04,23,13,01,11.10
2023,04,23,13,02,11.10
2023,04,23,13,03,11.10
2023,04,23,13,04,11.10
2023,04,23,13,05,11.10
2023,04,23,13,06,11.10
2023,04,23,13,07,11.10
2023,04,23,13,08,11.10
2023,04,23,13,09,11.10
2023,04,23,13,10,11.10
2023,04,23,13,11,11.10
2023,04,23,13,12,11.10
2023,04,23,13,13,11.10
2023,04,23,13,14,11.10
2023,04,23,13,15,11.10
2023,04,23,13,16,11.10
2023,04,23,13,17,11.10
2023,04,23,13,18,11.10
2023,04,23,13,19,11.10
2023,04,23,13,20,11.10
2023,04,23,13,21,11.10
2023,04,23,13,22,11.10
2023,04,23,13,23,11.10
2023,04,23,13,24,11.10
2023,04,23,13,25,11.10
2023,04,23,13,26,11.10
2023,04,23,13,27,11.10
2023,04,23,13,28,11.10
2023,04,23,13,29,11.10
2023,04,23,13,30,11.10
2023,04,23,13,31,11.20
2023,04,23,13,32,11.20
2023,04,23,13,33,11.20
2023,04,23,13,34,11.20
2023,04,23,13,35,11.20
2023,04,23,13,36,11.20
2023,04,23,13,37,11.20
2023,04,23,13,38,11.20
2023,04,23,13,39,11.20
2023,04,23,13,40,11.20
2023,04,23,13,41,11.30
2023,04,23,13,42,11.30
2023,04,23,13,43,11.30
2023,04,23,13,44,11.30
2023,04,23,13,45,11.30
2023,04,23,13,46,11.30
2023,04,23,13,47,11.30
2023,04,23,13,48,11.30
2023,04,23,13,49,11.30
2023,04,23,13,50,11.30
2023,04,23,13,51,11.30
2023,04,23,13,52,11.30
2023,04,23,13,53,11.30
2023,04,23,13,54,11.30
2023,04,23,13,55,11.20
2023,04,23,13,56,11.20
2023,04,23,13,57,11.20
2023,04,23,13,58,11.20
2023,04,23,13,59,11.20
2023,04,23,14,00,11.20
2023,04,23,14,01,11.20
2023,04,23,14,02,11.10
2023,04,23,14,03,11.10
2023,04,23,14,04,11.20
2023,04,23,14,05,11.20
2023,04,23,14,06,11.30
2023,04,23,14,07,11.30
2023,04,23,14,08,11.30
2023,04,23,14,09,11.40
2023,04,23,14,10,11.40
2023,04,23,14,11,11.40
2023,04,23,14,12,11.50
2023,04,23,14,13,11.60
2023,04,23,14,14,11.60
2023,04,23,14,15,11.60
2023,04,23,14,16,11.50
2023,04,23,14,17,11.60
2023,04,23,14,18,11.50
2023,04,23,14,19,11.40
2023,04,23,14,20,11.40
2023,04,23,14,21,11.40
2023,04,23,14,22,11.40
2023,04,23,14,23,11.40
2023,04,23,14,24,11.40
2023,04,23,14,25,11.40
2023,04,23,14,26,11.40
2023,04,23,14,27,11.40
2023,04,23,14,28,11.30
2023,04,23,14,29,11.40
2023,04,23,14,30,11.40
2023,04,23,14,31,11.40
2023,04,23,14,32,11.40
2023,04,23,14,33,11.40
2023,04,23,14,34,11.40
2023,04,23,14,35,11.40
2023,04,23,14,36,11.40
2023,04,23,14,37,11.40
2023,04,23,14,38,11.40
2023,04,23,14,39,11.50
2023,04,23,14,40,11.60
2023,04,23,14,41,11.60
2023,04,23,14,42,11.60
2023,04,23,14,43,11.60
2023,04,23,14,44,11.60
2023,04,23,14,45,11.60
2023,04,23,14,46,11.60
2023,04,23,14,47,11.60
2023,04,23,14,48,11.60
2023,04,23,14,49,11.60
2023,04,23,14,50,11.60
2023,04,23,14,51,11.60
2023,04,23,14,52,11.60
2023,04,23,14,53,11.60
2023,04,23,14,54,11.50
2023,04,23,14,55,11.40
2023,04,23,14,56,11.40
2023,04,23,14,57,11.50
2023,04,23,14,58,11.60
2023,04,23,14,59,11.60
2023,04,23,15,00,11.60
2023,04,23,15,01,11.60
2023,04,23,15,02,11.60
2023,04,23,15,03,11.60
2023,04,23,15,04,11.60
2023,04,23,15,05,11.60
2023,04,23,15,06,11.60
2023,04,23,15,07,11.60
2023,04,23,15,08,11.60
2023,04,23,15,09,11.60
2023,04,23,15,10,11.60
2023,04,23,15,11,11.60
2023,04,23,15,12,11.60
2023,04,23,15,13,11.60
2023,04,23,15,14,11.60
2023,04,23,15,15,11.60
2023,04,23,15,16,11.60
2023,04,23,15,17,11.60
2023,04,23,15,18,11.60
2023,04,23,15,19,11.60
2023,04,23,15,20,11.60
2023,04,23,15,21,11.60
2023,04,23,15,22,11.50
2023,04,23,15,23,11.40
2023,04,23,15,24,11.40
2023,04,23,15,25,11.40
2023,04,23,15,26,11.40
2023,04,23,15,27,11.40
2023,04,23,15,28,11.40
2023,04,23,15,29,11.40
2023,04,23,15,30,11.40
2023,04,23,15,31,11.30
2023,04,23,15,32,11.30
2023,04,23,15,33,11.40
2023,04,23,15,34,11.30
2023,04,23,15,35,11.30
2023,04,23,15,36,11.20
2023,04,23,15,37,11.10
2023,04,23,15,38,10.90
2023,04,23,15,39,10.90
2023,04,23,15,40,10.80
2023,04,23,15,41,10.80
2023,04,23,15,42,10.80
2023,04,23,15,43,10.70
2023,04,23,15,44,10.60
2023,04,23,15,45,10.40
2023,04,23,15,46,10.30
2023,04,23,15,47,10.30
2023,04,23,15,48,10.20
2023,04,23,15,49,10.10
2023,04,23,15,50,10.00
2023,04,23,15,51,9.90
2023,04,23,15,52,9.90
2023,04,23,15,53,9.90
2023,04,23,15,54,9.80
2023,04,23,15,55,9.70
2023,04,23,15,56,9.70
2023,04,23,15,57,9.70
2023,04,23,15,58,9.70
2023,04,23,15,59,9.70
2023,04,23,16,00,9.60
2023,04,23,16,01,9.60
2023,04,23,16,02,9.60
2023,04,23,16,03,9.60
2023,04,23,16,04,9.60
2023,04,23,16,05,9.50
2023,04,23,16,06,9.40
2023,04,23,16,07,9.40
2023,04,23,16,08,9.30
2023,04,23,16,09,9.30
2023,04,23,16,10,9.30
2023,04,23,16,11,9.30
2023,04,23,16,12,9.30
2023,04,23,16,13,9.30
2023,04,23,16,14,9.20
2023,04,23,16,15,9.20
2023,04,23,16,16,9.20
2023,04,23,16,17,9.20
2023,04,23,16,18,9.20
2023,04,23,16,19,9.20
2023,04,23,16,20,9.20
2023,04,23,16,21,9.20
2023,04,23,16,22,9.20
2023,04,23,16,23,9.20
2023,04,23,16,24,9.20
2023,04,23,16,25,9.20
2023,04,23,16,26,9.20
2023,04,23,16,27,9.10
2023,04,23,16,28,9.10
2023,04,23,16,29,9.10
2023,04,23,16,30,9.10
2023,04,23,16,31,9.10
2023,04,23,16,32,9.10
2023,04,23,16,33,9.10
2023,04,23,16,34,9.10
2023,04,23,16,35,9.10
2023,04,23,16,36,9.10
2023,04,23,16,37,9.10
2023,04,23,16,38,9.20
2023,04,23,16,39,9.20
2023,04,23,16,40,9.20
2023,04,23,16,41,9.10
2023,04,23,16,42,9.10
2023,04,23,16,43,9.10
2023,04,23,16,44,9.00
2023,04,23,16,45,9.00
2023,04,23,16,46,9.00
2023,04,23,16,47,9.10
2023,04,23,16,48,9.20
2023,04,23,16,49,9.20
2023,04,23,16,50,9.20
2023,04,23,16,51,9.20
2023,04,23,16,52,9.20
2023,04,23,16,53,9.20
2023,04,23,16,54,9.20
2023,04,23,16,55,9.20
2023,04,23,16,56,9.20
2023,04,23,16,57,9.20
2023,04,23,16,58,9.20
2023,04,23,16,59,9.20
2023,04,23,17,00,9.20
2023,04,23,17,01,9.20
2023,04,23,17,02,9.20
2023,04,23,17,03,9.20
2023,04,23,17,04,9.20
2023,04,23,17,05,9.20
2023,04,23,17,06,9.20
2023,04,23,17,07,9.20
2023,04,23,17,08,9.20
2023,04,23,17,09,9.20
2023,04,23,17,10,9.20
2023,04,23,17,11,9.20
2023,04,23,17,12,9.20
2023,04,23,17,13,9.20
2023,04,23,17,14,9.20
2023,04,23,17,15,9.20
